Location: Newport
(44.6370°N, 124.0520°W)
Time: 20:20:49
(UTC-07:00)

Vanguard 2 - Visible Passes

Search period start: 17 July 2018 00:00
Search period end: 27 July 2018 00:00
Orbit: 553 x 2939 km, 32.9° (Epoch: 17 July)

Date Brightness Start Highest point End Pass type
(mag) Time Alt. Az. Time Alt. Az. Time Alt. Az.
17 Jul 10.3 01:51:27 10° W 02:05:07 32° SW 02:06:43 31° SSW visible
17 Jul 10.5 21:44:58 10° WSW 22:01:33 55° S 22:17:17 10° ESE visible
17 Jul 10.3 23:56:24 10° W 00:12:59 48° SSW 00:21:08 28° SE visible
18 Jul 10.5 02:10:12 10° W 02:22:27 26° SW 02:22:27 26° SW visible
18 Jul 10.5 22:02:54 10° WSW 22:19:33 56° S 22:35:13 10° ESE visible
19 Jul 10.3 00:14:38 10° W 00:30:45 44° SSW 00:36:59 32° SSE visible
19 Jul 10.9 02:29:25 10° W 02:38:18 20° SW 02:38:18 20° SW visible
19 Jul 10.5 22:20:54 10° WSW 22:37:31 54° S 22:51:34 14° ESE visible
20 Jul 10.4 00:32:59 10° W 00:48:24 38° SSW 00:52:54 33° S visible
20 Jul 11.2 02:49:31 10° WSW 02:54:14 14° WSW 02:54:14 14° WSW visible
20 Jul 10.5 22:38:59 10° W 22:55:27 52° SSW 23:07:33 20° SE visible
21 Jul 10.5 00:51:31 10° W 01:05:58 33° SW 01:08:54 31° SSW visible
21 Jul 10.5 22:57:07 10° W 23:13:19 48° SSW 23:23:36 24° SE visible
22 Jul 10.8 01:10:19 10° W 01:23:24 27° SW 01:24:56 26° SSW visible
22 Jul 10.6 21:04:28 10° WSW 21:19:42 55° S 21:36:32 10° ESE visible
22 Jul 10.6 23:15:21 10° W 23:31:06 43° SSW 23:39:42 27° SSE visible
23 Jul 11.0 01:29:36 10° W 01:40:45 21° SW 01:41:03 21° SW visible
23 Jul 10.6 21:22:28 10° WSW 21:37:40 53° S 21:54:23 10° ESE visible
23 Jul 10.7 23:33:42 10° W 23:48:49 37° SSW 23:55:50 28° S visible
24 Jul 11.3 01:49:51 10° WSW 01:57:11 15° SW 01:57:11 15° SW visible
24 Jul 10.6 21:40:31 10° W 21:55:38 50° SSW 22:10:40 14° SE visible
24 Jul 10.8 23:52:16 10° W 00:06:26 32° SW 00:12:01 27° S visible
25 Jul 10.7 21:58:39 10° W 22:13:31 46° SSW 22:26:54 17° SE visible
26 Jul 11.0 00:11:08 10° W 00:23:57 26° SW 00:28:16 23° SSW visible
26 Jul 10.8 22:16:52 10° W 22:31:21 41° SSW 22:43:12 19° SSE visible
